Location: Unspecified
(43.0000°N, 0.0000°E)
Time: 12:36:18
(UTC+00:00)

PicSat - Pass Details

Date: 17 August 2020
Orbit: 482 x 496 km, 97.4° (Epoch: 21 September)

Event Time Altitude Azimuth Distance (km) Brightness Sun altitude
Exits shadow 22:15:11 28° 323° (NW) 959 ? -28.7°
Drops below altitude 10° 22:17:08 10° 338° (NNW) 1,703 ? -28.9°
Sets 22:19:15 0° 343° (NNW) 2,589 ? -29.1°
